User: anonymous   Login
Location: Équennes
(49.7375°N, 1.9622°E)
Time: 15:04:32
(UTC+00:00)
Language:

YAOGAN 1 - Orbit

View from above orbital plane
View from above orbital plane
View from above satellite
View from above satellite

Ground track
Ground track

The orbit data is extracted from the following two-line orbital elements,

1 29092U 06015A   23161.10831059  .00001009  00000-0  12707-3 0  9994
2 29092  97.8383 188.4545 0001523  92.2887 267.8502 14.84155815926070
Epoch (UTC): 10 June 2023 02:35:58
Eccentricity: 0.0001523
inclination: 97.8383°
perigee height: 615 km
apogee height: 617 km
right ascension of ascending node: 188.4545°
argument of perigee: 92.2887°
revolutions per day: 14.84155815
mean anomaly at epoch: 267.8502°
orbit number at epoch: 92607

The dashed part of the orbit path shows where the satellite is in the earth's shadow,  

DLR